Regional Weather Roundup
Issued by NWS

Home | Current Version | Previous Version | Text Only | Print | Product List | Glossary On
Versions: 1 2 3 4 5 6 7 8 9 10 11 12 13 14 15 16 17 18 19 20 21 22 23 24 25 26 27 28 29 30 31 32 33 34 35 36 37 38 39 40 41 42 43 44 45 46 47 48 49 50
511
ASUS43 KTOP 200959
RWRKS

WEATHER ROUNDUP FOR KANSAS
NATIONAL WEATHER SERVICE GOODLAND KS
500 AM CDT SUN AUG 20 2017

NOTE:  "FAIR" INDICATES FEW OR NO CLOUDS BELOW 12,000 FEET WITH NO
SIGNIFICANT WEATHER AND/OR OBSTRUCTIONS TO VISIBILITY.

KSZ001>006-013>018-027>032-041>047-201100-
NORTHWEST KANSAS

CITY           SKY/WX    TMP DP  RH WIND       PRES   REMARKS
GOODLAND       CLEAR     67  51  56 S9        29.93S
HAYS           PTCLDY    73  66  78 S9        29.90S
HILL CITY      CLEAR     71  65  81 SW8       29.87F
RUSSELL        PTCLDY    75  66  73 S7        29.88R
$$

KSZ061>065-074>080-084>089-201100-
SOUTHWEST KANSAS

CITY           SKY/WX    TMP DP  RH WIND       PRES   REMARKS
DODGE CITY     CLEAR     71  65  81 S9        29.94F
ELKHART          N/A     65  60  84 S8          N/A
GARDEN CITY    CLEAR     69  64  84 S9        29.94F
GREAT BEND     PTCLDY    73  67  81 S8        29.90S
LIBERAL        PTCLDY    70  66  87 MISG      29.96F
$$

KSZ066>073-081>083-090>101-201100-
SOUTHEAST KANSAS

CITY           SKY/WX    TMP DP  RH WIND       PRES   REMARKS
CHANUTE        CLOUDY    70  64  81 CALM      29.95S
COFFEYVILLE    PTCLDY    75  72  90 S3        29.95F
HUTCHINSON     CLEAR     73  69  87 SE7       29.92R
MEDICINE LODGE   N/A     73  68  84 CALM      29.93R
NEWTON         CLEAR     74  70  87 SE10      29.96R
PARSONS        CLOUDY    73  68  84 CALM      29.95F
WICHITA INTL   PTCLDY    75  70  84 SE10      29.94R
WICHITA JABRA  CLEAR     74  72  93 SE9       29.95R
WICHITA MCCONL CLEAR     75  69  81 S9        29.95R
WINFIELD       CLEAR     75  70  84 SE7       29.97R
$$

KSZ007>012-019>026-033>040-048>060-102>105-201100-
NORTHEAST KANSAS

CITY           SKY/WX    TMP DP  RH WIND       PRES   REMARKS
CONCORDIA      CLOUDY    67  64  90 SE16      29.92F
EMPORIA        PTCLDY    74  63  68 S15       29.93F
LAWRENCE       CLOUDY    80  75  84 W14G23    29.94R
MANHATTAN      TSTM      71  65  81 NE12      29.96S
OLATHE IND     PTCLDY    78  74  87 SW9       29.94S
OLATHE EXE     PTCLDY    77  74  90 S7        29.93S
SALINA         MOCLDY    77  69  76 S6        29.89R
TOPEKA BILLARD CLOUDY    75  64  68 N10G20    29.97R
TOPEKA FORBES  CLOUDY    81  77  88 N7        29.96R
$$




USA.gov is the U.S. government's official web portal to all federal, state and local government web resources and services.